Location: Dąbrowa Miętka
(51.3714°N, 18.6370°E)
Time: 00:05:43
(UTC+02:00)

ISS - Pass Details

Date: 27 May 2018
Orbit: 402 x 408 km, 51.6° (Epoch: 20 September)

Event Time Altitude Azimuth Distance (km) Brightness Sun altitude
Rises 00:16:46 0° 283° (WNW) 2,323 0.3 -17.2°
Reaches altitude 10° 00:18:52 10° 279° (W) 1,461 -0.8 -17.2°
Maximum altitude 00:22:06 58° 200° (SSW) 474 -3.9 -17.2°
Enters shadow 00:22:19 56° 178° (S) 483 -3.9 -17.2°
